Voltar ao catálogo

COSMOS 1285 DEB

LostHEO
NORAD 28558·DEBRIS·🇷🇺 Russia

Lançado Aug 4, 1981 de Plesetsk Cosmodrome

Loading…

Próximas Passagens (próximas 24 horas)

TLE

ObsoletoSource: Space-Track

Época: Aug 23, 2015, 19:31 UTC

1 28558U 81071S   15235.81324521  .00000719  00000-0  00000+0 0  9993
2 28558  69.1748 328.2376 5601726  99.4286 333.8060  1.97667381 89155

Acompanhe COSMOS 1285 DEB em tempo real com AllMySat

Download on the App Store